Home   Weather   Tulare   Past weeks
Flag for USA

Past Weather in Tulare, California, USA — Yesterday and Last 2 Weeks

Now
60 °F

Mostly cloudy.


Feels Like: 60 °F
Forecast: 60 / 52 °F
Wind: 13 mph from South

Location: Visalia Municipal

Current Time: May 19, 2019 at 10:29:15 am

Latest Report: May 19, 2019 at 9:56 am


Visibility: 10 mi

Pressure: 29.86 "Hg

Humidity: 80%

Dew Point: 54 °F

Location of TulareLocation

Past Weather in Tulare — Graph

°F

Tulare Temperature Yesterday

Maximum temperature yesterday: 70 °F (at 1:56 pm)
Minimum temperature yesterday: 47 °F (at 5:56 am)
Average temperature yesterday: 57 °F

High & Low Weather Summary for the Past Weeks

 TemperatureHumidityPressure
High89 °F (May 12, 3:56 pm)100% (May 16, 7:10 am)30.14 "Hg (May 16, 7:10 am)
Low47 °F (May 18, 5:56 am)19% (May 4, 4:56 pm)29.63 "Hg (May 9, 5:56 pm)
Average66 °F61%29.90 "Hg
* Reported May 4 8:56 am — May 19 8:56 am, Tulare. Weather by CustomWeather, © 2019

Note: Actual official high and low records may vary slightly from our data, if they occured in-between our weather recording intervals... More about our weather records

Advertising

Tulare Weather History for the Previous 24 Hours

Scroll right to see more
 ConditionsComfort  
Time TempWeatherWind HumidityBarometerVisibility
8:56 am
Sun, May 19
57 °FBroken clouds.10 mph90%29.86 "Hg10 mi
8:24 am55 °FMore clouds than sun.9 mph94%29.83 "Hg10 mi
7:56 am55 °FBroken clouds.9 mph93%29.84 "Hg10 mi
7:37 am55 °FBroken clouds.8 mph94%29.81 "Hg10 mi
6:56 am54 °FLow clouds.6 mph97%29.83 "Hg10 mi
6:09 am54 °FLight rain. Fog.3 mph94%29.81 "Hg5 mi
4:56 am53 °FLight rain. Mostly cloudy.No wind96%29.83 "Hg8 mi
3:56 am53 °FLight rain. Overcast.3 mph93%29.83 "Hg10 mi
2:56 am52 °FLight rain. Overcast.6 mph97%29.84 "Hg10 mi
1:56 am52 °FOvercast.7 mph97%29.85 "Hg10 mi
12:56 am51 °FPassing clouds.13 mph96%29.87 "Hg10 mi
12:03 am52 °FRain. Mostly cloudy.13 mph94%29.87 "Hg8 mi
11:56 pm
Sat, May 18
51 °FLight rain. Overcast.10 mph96%29.90 "Hg10 mi
11:27 pm52 °FMostly cloudy.9 mph100%29.90 "Hg10 mi
11:11 pm54 °FMostly cloudy.8 mph94%29.89 "Hg10 mi
10:56 pm53 °FMostly cloudy.8 mph96%29.92 "Hg10 mi
10:04 pm54 °FLight rain. Mostly cloudy.6 mph94%29.91 "Hg9 mi
9:17 pm54 °FRain. Low clouds.6 mph94%29.92 "Hg10 mi
8:56 pm54 °FLight rain. Mostly cloudy.5 mph93%29.95 "Hg10 mi
8:14 pm54 °FRain. Mostly cloudy.No wind94%29.92 "Hg7 mi
7:56 pm54 °FRain. Fog.No wind93%29.94 "Hg6 mi
6:56 pm54 °FLight rain. Mostly cloudy.6 mph90%29.94 "Hg10 mi
5:56 pm55 °FLight rain. Mostly cloudy.12 mph80%29.96 "Hg10 mi
4:56 pm61 °FLight rain. Overcast.14 mph65%29.94 "Hg10 mi
3:56 pm68 °FLight rain. Partly sunny.No wind51%29.93 "Hg10 mi
2:56 pm69 °FSunny.7 mph45%29.94 "Hg10 mi
1:56 pm70 °FSunny.8 mph44%29.95 "Hg10 mi
12:56 pm69 °FSunny.7 mph47%29.96 "Hg10 mi
11:56 am68 °FSunny.8 mph47%29.97 "Hg10 mi
10:56 am66 °FSunny.7 mph52%29.98 "Hg10 mi
Weather by CustomWeather, © 2019

See weather overview